Location: Brompton
(51.4000°N, 0.5333°E)
Time: 09:31:38
(UTC+00:00)

DNEPR-1 R/B - Pass Details

Date: 11 May 2021
Orbit: 587 x 1335 km, 64.6° (Epoch: 12 June)

Event Time Altitude Azimuth Distance (km) Brightness Sun altitude
Exits shadow 22:34:45 32° 172° (S) 1,410 4.8 -18.3°
Maximum altitude 22:36:47 45° 124° (SE) 1,078 4.4 -18.4°
Drops below altitude 10° 22:41:30 10° 52° (NE) 2,185 6.6 -18.7°
Sets 22:43:43 0° 46° (NE) 3,026 7.5 -18.8°
